Location: Oberwangen
(47.4286°N, 8.9679°E)
Time: 22:33:15
(UTC+00:00)

SJ 16-02 - Pass Details

Date: 20 June 2021
Orbit: 606 x 616 km, 75.0° (Epoch: 23 July)

Event Time Altitude Azimuth Distance (km) Brightness Sun altitude
Rises 23:09:33 0° 338° (NNW) 2,876 6.1 -19.0°
Reaches altitude 10° 23:11:48 10° 338° (NNW) 1,967 5.0 -19.1°
Maximum altitude 23:16:11 85° 253° (WSW) 615 1.2 -19.1°
Enters shadow 23:17:30 45° 166° (SSE) 829 1.5 -19.1°
